Overview Statistics Trail Chart Weather Telemetry Raw packets
 

This is the latest recevied weather packets stored in our database for station/object NK7E-2. If no packets are shown the sender has not sent any weather packets the latest 10 day(s).

<< 39 40 41 42 43 44 45 >>
Time Temp. Humidity Pressure Rain* Wind** Luminosity Snow
1787857816 38.33° C 21% 1030.8 hPa 0 mm - - -
1787857216 37.78° C 22% 1031.3 hPa 0 mm - - -
1787856616 37.78° C 22% 1031.4 hPa 0 mm - - -
1787856016 37.22° C 23% 1031.3 hPa 0 mm - - -
1787855416 36.11° C 25% 1031.1 hPa 0 mm - - -
1787854816 36.11° C 26% 1031.2 hPa 0 mm - - -
1787854216 35.56° C 26% 1031.2 hPa 0 mm - - -
1787853616 35° C 27% 1031.4 hPa 0 mm - - -
1787853016 35° C 27% 1031.7 hPa 0 mm - - -
1787852416 35.56° C 26% 1031.7 hPa 0 mm - - -
1787851816 35.56° C 25% 1031.6 hPa 0 mm - - -
1787851216 35.56° C 26% 1031.8 hPa 0 mm - - -
1787850618 35° C 25% 1031.8 hPa 0 mm - - -
1787850016 35° C 25% 1031.4 hPa 0 mm - - -
1787849416 35° C 26% 1031.2 hPa 0 mm - - -
1787848816 33.89° C 26% 1031.4 hPa 0 mm - - -
1787848216 34.44° C 27% 1031.6 hPa 0 mm - - -
1787847617 33.89° C 27% 1031.6 hPa 0 mm - - -
1787847016 33.33° C 27% 1031.6 hPa 0 mm - - -
1787846416 33.33° C 27% 1031.5 hPa 0 mm - - -
1787845816 33.33° C 28% 1031.6 hPa 0 mm - - -
1787845216 32.78° C 28% 1031.4 hPa 0 mm - - -
1787844616 32.22° C 29% 1031.3 hPa 0 mm - - -
1787844016 32.78° C 26% 1031.4 hPa 0 mm - - -
1787843416 32.78° C 24% 1031.1 hPa 0 mm - - -

* Rain latest hour (hover to see other rain measurements)
** Current wind speed in m/s (hover to see current wind gust speed)